カタログに戻る

STARLINK-35530

運用中通信VLEO
NORAD 65921·PAYLOAD·🇺🇸 United States

打ち上げ Oct 8, 2025 から Vandenberg Space Force Base

Loading…

次のパス (今後24時間)

TLE

最新Source: CelesTrak SupGP

元期: Sep 15, 2026, 03:40 UTC

1 65921C 25225M   26258.15326389  .00072717  00000+0  21483-2 0  2580
2 65921  53.1597   2.8046 0001260  97.0842 341.3627 15.34356485    15

AllMySatでSTARLINK-35530をリアルタイム追跡

Download on the App Store